• In United Kingdom
  • List of Countries
  • For 7 days
  • Water Temperature
  • Satellite Maps
  • Weather Map
  • Weather Widgets
  • user-avatar
    Login

    Hourly Weather Ghanzi

    Today, 20 June, Wednesday

    Time Temperature Precipitation Wind Pressure Humidity
    00:00 +36°C° 0 mm 4 mps 712 mmHg 15%
    01:00 +35°C° 0 mm 4 mps 712 mmHg 16%
    02:00 +34°C° 0 mm 4 mps 712 mmHg 17%
    03:00 +34°C° 0 mm 3 mps 712 mmHg 18%
    04:00 +33°C° 0 mm 3 mps 712 mmHg 18%
    05:00 +34°C° 0 mm 4 mps 713 mmHg 18%
    06:00 +35°C° 0 mm 5 mps 713 mmHg 17%
    07:00 +37°C° 0 mm 5 mps 714 mmHg 16%
    08:00 +40°C° 0 mm 6 mps 714 mmHg 17%
    09:00 +41°C° 0 mm 7 mps 714 mmHg 18%
    10:00 +44°C° 0 mm 8 mps 715 mmHg 18%
    11:00 +45°C° 0 mm 8 mps 714 mmHg 18%
    12:00 +46°C° 0 mm 8 mps 714 mmHg 17%
    13:00 +45°C° 0 mm 7 mps 715 mmHg 18%
    14:00 +45°C° 0 mm 7 mps 714 mmHg 18%
    15:00 +45°C° 0 mm 7 mps 714 mmHg 18%
    16:00 +44°C° 0 mm 6 mps 714 mmHg 18%
    17:00 +42°C° 0 mm 6 mps 714 mmHg 20%
    18:00 +41°C° 0 mm 5 mps 714 mmHg 22%
    19:00 +40°C° 0 mm 4 mps 714 mmHg 24%
    20:00 +38°C° 0 mm 4 mps 714 mmHg 25%
    21:00 +38°C° 0 mm 4 mps 714 mmHg 26%
    22:00 +37°C° 0 mm 4 mps 715 mmHg 27%
    23:00 +37°C° 0.1 mm 4 mps 715 mmHg 27%

    Tomorrow, 21 June, Thursday

    Time Temperature Precipitation Wind Pressure Humidity
    00:00 +36°C° 0.1 mm 4 mps 715 mmHg 28%
    01:00 +36°C° 0.1 mm 4 mps 715 mmHg 28%
    02:00 +35°C° 0 mm 3 mps 715 mmHg 29%
    03:00 +35°C° 0 mm 2 mps 715 mmHg 29%
    04:00 +34°C° 0 mm 2 mps 714 mmHg 29%
    05:00 +35°C° 0.3 mm 2 mps 715 mmHg 28%
    06:00 +35°C° 0.3 mm 2 mps 715 mmHg 28%
    07:00 +36°C° 0.3 mm 2 mps 716 mmHg 27%
    08:00 +36°C° 0.4 mm 2 mps 716 mmHg 26%
    09:00 +37°C° 0.4 mm 3 mps 716 mmHg 25%
    10:00 +38°C° 0.4 mm 3 mps 717 mmHg 24%
    11:00 +38°C° 0 mm 3 mps 717 mmHg 23%
    12:00 +38°C° 0 mm 3 mps 717 mmHg 22%
    13:00 +39°C° 0 mm 3 mps 717 mmHg 21%
    14:00 +39°C° 0 mm 3 mps 716 mmHg 20%
    15:00 +39°C° 0 mm 3 mps 716 mmHg 19%
    16:00 +39°C° 0 mm 3 mps 715 mmHg 18%
    17:00 +39°C° 0 mm 3 mps 715 mmHg 18%
    18:00 +38°C° 0 mm 3 mps 715 mmHg 19%
    19:00 +37°C° 0 mm 3 mps 715 mmHg 20%
    20:00 +37°C° 0 mm 4 mps 715 mmHg 20%
    21:00 +36°C° 0 mm 4 mps 716 mmHg 21%
    22:00 +36°C° 0 mm 4 mps 716 mmHg 22%
    23:00 +35°C° 0 mm 4 mps 716 mmHg 23%

    Day after tomorrow, 22 June, Friday

    Time Temperature Precipitation Wind Pressure Humidity
    00:00 +35°C° 0 mm 3 mps 715 mmHg 24%
    01:00 +34°C° 0 mm 3 mps 715 mmHg 25%
    02:00 +34°C° 0 mm 3 mps 715 mmHg 26%
    03:00 +33°C° 0 mm 3 mps 715 mmHg 26%
    04:00 +33°C° 0 mm 3 mps 715 mmHg 27%
    05:00 +34°C° 0 mm 4 mps 715 mmHg 25%
    06:00 +35°C° 0 mm 4 mps 715 mmHg 24%
    07:00 +36°C° 0 mm 5 mps 716 mmHg 23%
    08:00 +39°C° 0 mm 5 mps 716 mmHg 20%
    09:00 +40°C° 0 mm 4 mps 716 mmHg 17%
    10:00 +42°C° 0 mm 4 mps 717 mmHg 14%
    11:00 +43°C° 0 mm 3 mps 716 mmHg 13%
    12:00 +44°C° 0 mm 3 mps 716 mmHg 12%
    13:00 +45°C° 0 mm 2 mps 715 mmHg 10%
    14:00 +45°C° 0 mm 2 mps 714 mmHg 10%
    15:00 +45°C° 0 mm 2 mps 714 mmHg 10%
    16:00 +45°C° 0 mm 1 mps 713 mmHg 9%
    17:00 +45°C° 0 mm 2 mps 713 mmHg 10%
    18:00 +43°C° 0 mm 2 mps 713 mmHg 10%
    19:00 +43°C° 0 mm 3 mps 714 mmHg 11%
    20:00 +43°C° 0 mm 4 mps 714 mmHg 12%
    21:00 +42°C° 0 mm 5 mps 714 mmHg 12%
    22:00 +42°C° 0 mm 6 mps 714 mmHg 13%
    23:00 +40°C° 0 mm 6 mps 714 mmHg 14%

    23 June, Saturday

    Time Temperature Precipitation Wind Pressure Humidity
    00:00 +39°C° 0 mm 7 mps 714 mmHg 15%
    01:00 +38°C° 0 mm 8 mps 714 mmHg 17%
    02:00 +36°C° 0 mm 7 mps 714 mmHg 17%
    03:00 +36°C° 0 mm 7 mps 714 mmHg 18%
    04:00 +35°C° 0 mm 6 mps 714 mmHg 19%
    05:00 +35°C° 0 mm 7 mps 714 mmHg 18%
    06:00 +37°C° 0 mm 8 mps 715 mmHg 18%
    07:00 +37°C° 0 mm 9 mps 715 mmHg 18%
    08:00 +39°C° 0 mm 8 mps 715 mmHg 16%
    09:00 +41°C° 0 mm 8 mps 716 mmHg 14%
    10:00 +44°C° 0 mm 8 mps 716 mmHg 12%
    11:00 +44°C° 0 mm 7 mps 715 mmHg 12%
    12:00 +45°C° 0 mm 6 mps 715 mmHg 11%
    13:00 +46°C° 0 mm 5 mps 714 mmHg 10%
    14:00 +46°C° 0 mm 5 mps 714 mmHg 10%
    15:00 +46°C° 0 mm 5 mps 713 mmHg 10%
    16:00 +47°C° 0 mm 4 mps 713 mmHg 10%
    17:00 +44°C° 0 mm 4 mps 713 mmHg 11%
    18:00 +43°C° 0 mm 5 mps 713 mmHg 12%
    19:00 +42°C° 0 mm 5 mps 713 mmHg 12%
    20:00 +42°C° 0 mm 5 mps 713 mmHg 14%
    21:00 +41°C° 0 mm 6 mps 713 mmHg 15%
    22:00 +40°C° 0 mm 7 mps 714 mmHg 16%
    23:00 +39°C° 0 mm 6 mps 713 mmHg 18%

    24 June, Sunday

    Time Temperature Precipitation Wind Pressure Humidity
    00:00 +38°C° 0 mm 6 mps 713 mmHg 19%
    01:00 +36°C° 0 mm 5 mps 712 mmHg 20%
    02:00 +36°C° 0 mm 5 mps 712 mmHg 20%
    03:00 +36°C° 0 mm 4 mps 712 mmHg 21%
    04:00 +35°C° 0 mm 4 mps 712 mmHg 21%
    05:00 +36°C° 0 mm 4 mps 713 mmHg 20%
    06:00 +36°C° 0 mm 5 mps 713 mmHg 20%
    07:00 +37°C° 0 mm 5 mps 714 mmHg 19%
    08:00 +40°C° 0 mm 5 mps 714 mmHg 17%
    09:00 +41°C° 0 mm 5 mps 714 mmHg 16%
    10:00 +43°C° 0 mm 4 mps 715 mmHg 14%
    11:00 +43°C° 0 mm 3 mps 714 mmHg 13%
    12:00 +43°C° 0 mm 2 mps 714 mmHg 13%
    13:00 +43°C° 0 mm 1 mps 713 mmHg 12%
    14:00 +43°C° 0 mm 2 mps 713 mmHg 12%
    15:00 +45°C° 0 mm 2 mps 713 mmHg 12%
    16:00 +45°C° 0 mm 3 mps 712 mmHg 12%
    17:00 +44°C° 0.2 mm 3 mps 713 mmHg 13%
    18:00 +43°C° 0.2 mm 4 mps 713 mmHg 14%
    19:00 +42°C° 0.2 mm 5 mps 713 mmHg 15%
    20:00 +41°C° 0.1 mm 5 mps 713 mmHg 17%
    21:00 +40°C° 0.1 mm 5 mps 713 mmHg 18%
    22:00 +39°C° 0.1 mm 5 mps 714 mmHg 19%
    23:00 +38°C° 0 mm 4 mps 713 mmHg 20%

    25 June, Monday

    Time Temperature Precipitation Wind Pressure Humidity
    00:00 +37°C° 0 mm 4 mps 713 mmHg 21%
    01:00 +36°C° 0 mm 4 mps 712 mmHg 22%
    02:00 +36°C° 0 mm 4 mps 712 mmHg 22%
    03:00 +36°C° 0 mm 4 mps 713 mmHg 22%
    04:00 +36°C° 0 mm 4 mps 713 mmHg 22%
    05:00 +36°C° 0 mm 4 mps 713 mmHg 21%
    06:00 +37°C° 0 mm 5 mps 714 mmHg 19%
    07:00 +37°C° 0 mm 5 mps 714 mmHg 18%
    08:00 +40°C° 0 mm 5 mps 714 mmHg 16%
    09:00 +41°C° 0 mm 5 mps 714 mmHg 14%
    10:00 +43°C° 0 mm 4 mps 714 mmHg 13%
    11:00 +43°C° 0 mm 3 mps 714 mmHg 12%
    12:00 +44°C° 0 mm 3 mps 713 mmHg 12%
    13:00 +43°C° 0 mm 2 mps 713 mmHg 12%
    14:00 +43°C° 0 mm 2 mps 712 mmHg 12%
    15:00 +45°C° 0 mm 2 mps 712 mmHg 11%
    16:00 +45°C° 0 mm 3 mps 712 mmHg 11%
    17:00 +44°C° 0 mm 3 mps 712 mmHg 12%
    18:00 +43°C° 0 mm 4 mps 713 mmHg 13%
    19:00 +43°C° 0 mm 5 mps 713 mmHg 13%
    20:00 +42°C° 0 mm 5 mps 713 mmHg 14%
    21:00 +41°C° 0 mm 4 mps 713 mmHg 14%
    22:00 +41°C° 0 mm 4 mps 713 mmHg 15%
    23:00 +40°C° 0 mm 5 mps 713 mmHg 16%
    Show more